Flag for United Kingdom Weather past 2 weeks in Coventry, England, United Kingdom

Now
48 °F

Cool.


Feels Like: 46 °F
Forecast: 35 / 53 °F
Wind: 6 mph from Southwest

Location: Birmingham / Airport


UV Index: 3 (Moderate)

Visibility: N/A


Pressure: 30.18 "Hg

Humidity: 62%

Dew point: 36 °F

Location of CoventryLocation

Historic Weather in Coventry

°F

Coventry temperature yesterday

Maximum temperature yesterday: 61 °F (at 3:50 PM)
Minimum temperature yesterday: 34 °F (at 5:20 AM)
Average temperature yesterday: 49 °F

Past Weeks' High & Low Weather Summary

 TemperatureHumidityPressure
High61 °F (Apr 16, 3:50 PM)100% (Apr 3, 5:50 AM)30.45 "Hg (Apr 3, 5:50 AM)
Low30 °F (Apr 15, 5:50 AM)44% (Apr 15, 4:20 PM)29.53 "Hg (Apr 3, 4:20 AM)
Average50 °F77%30.00 "Hg
* Reported Apr 2 1:20 AM — Apr 17 1:50 AM, Coventry, Weather by CustomWeather, © 2014

Note: Actual official high and low records may vary slightly from our data, if they occured in-between our weather recording intervals... More about our weather records

Advertising

Historic Weather Conditions — Data for Previous 24 hours

 ConditionsComfort  
Time TempWeatherWind HumidityBarometerVisibility
1:50 AM
Apr 17
48 °FCool.6 mph62%30.18 "HgN/A
1:20 AM48 °FClear.5 mph62%30.18 "Hg10 mi
12:50 AM48 °FClear.2 mph66%30.21 "Hg10 mi
12:20 AM48 °FClear.3 mph66%30.21 "Hg10 mi
11:50 PM
Apr 16
50 °FClear.3 mph62%30.18 "Hg10 mi
11:20 PM48 °FClear.6 mph71%30.18 "Hg10 mi
10:50 PM50 °FClear.6 mph67%30.18 "Hg10 mi
10:20 PM52 °FPassing clouds.6 mph62%30.21 "HgN/A
9:50 PM52 °FClear.5 mph58%30.21 "Hg10 mi
9:20 PM52 °FClear.5 mph58%30.21 "Hg10 mi
8:50 PM52 °FSunny.5 mph62%30.21 "Hg10 mi
8:20 PM54 °FSunny.5 mph63%30.21 "Hg10 mi
7:50 PM55 °FSunny.3 mph59%30.21 "Hg10 mi
7:20 PM57 °FPassing clouds.6 mph51%30.21 "HgN/A
6:50 PM59 °FPassing clouds.7 mph48%30.21 "HgN/A
6:20 PM59 °FSunny.9 mph48%30.21 "Hg10 mi
5:50 PM61 °FPassing clouds.8 mph45%30.24 "HgN/A
5:20 PM61 °FPassing clouds.7 mph45%30.24 "HgN/A
4:50 PM61 °FPassing clouds.7 mph45%30.24 "HgN/A
4:20 PM61 °FPassing clouds.9 mph45%30.24 "HgN/A
3:50 PM61 °FPassing clouds.10 mph45%30.27 "HgN/A
3:20 PM59 °FPassing clouds.9 mph51%30.27 "HgN/A
2:50 PM59 °FPassing clouds.8 mph51%30.30 "HgN/A
2:20 PM57 °FPassing clouds.9 mph55%30.30 "HgN/A
1:50 PM57 °FPassing clouds.7 mph51%30.30 "HgN/A
1:20 PM57 °FPassing clouds.10 mph55%30.30 "HgN/A
12:50 PM55 °FSunny.12 mph59%30.30 "Hg10 mi
12:20 PM54 °FSunny.10 mph63%30.33 "Hg10 mi
11:50 AM54 °FPassing clouds.10 mph63%30.33 "HgN/A
11:20 AM52 °FSunny.12 mph67%30.33 "Hg10 mi
10:50 AM50 °FSunny.12 mph71%30.33 "Hg10 mi
10:20 AM48 °FSunny.14 mph71%30.36 "Hg10 mi
9:50 AM48 °FPassing clouds.14 mph76%30.36 "HgN/A
9:20 AM46 °FPassing clouds.12 mph76%30.36 "HgN/A
8:50 AM45 °FSunny.12 mph81%30.36 "Hg10 mi
8:20 AM41 °FSunny.8 mph87%30.36 "Hg10 mi
7:50 AM39 °FSunny.8 mph93%30.36 "Hg10 mi
7:20 AM36 °FClear.7 mph100%30.36 "Hg6 mi
6:50 AM34 °FClear.2 mph100%30.39 "Hg4 mi
6:20 AM34 °FClear.3 mph93%30.39 "Hg4 mi
5:50 AM34 °FClear.3 mph100%30.36 "Hg6 mi
5:20 AM34 °FClear.2 mph100%30.36 "Hg6 mi
4:50 AM36 °FClear.3 mph93%30.36 "Hg10 mi
4:20 AM36 °FClear.5 mph93%30.36 "Hg10 mi
3:50 AM36 °FChilly.6 mph93%30.36 "HgN/A
3:20 AM36 °FChilly.5 mph93%30.39 "HgN/A
2:50 AM37 °FChilly.5 mph93%30.39 "HgN/A
2:20 AM37 °FChilly.6 mph93%30.39 "HgN/A
Weather by CustomWeather, © 2014

See weather overview